[[{"header":{"parameterUnit":"m.s-1","parameterCategory":1,"la1":30.2991,"la2":30.254,"lo1":-89.0895,"lo2":-89.0444,"dy":0.0017,"dx":0.0017,"nx":28,"ny":28,"refTime":"2025-07-17T03:00:00:Z","depth":0,"parameterNumber":2,"parameterNumberName":"U-component_of_WINDS"},"data":[0,0,0,0,0,0,0,0,0,0,0,0,0,0,0,0,0,0,0,0,0,0,0,0,0,0,0,0,0,0,0,0,0,0,0,0,0,0,0,0,0,0,0,0,0,0,0,0,0,0,0,0,0,0,0,0,0,0,-1.7649,-1.7648,0,-1.7514,-1.7512,-1.7511,-1.7498,-1.7499,-1.7501,-1.7502,-1.736,-1.7355,-1.735,0,0,0,0,0,0,0,0,0,0,0,0,0,-1.7891,-1.7887,-1.7649,-1.7647,-1.7646,-1.7514,-1.7512,-1.7511,-1.7498,-1.7499,-1.7501,-1.7503,-1.7362,-1.7356,-1.735,0,0,0,0,0,0,0,0,0,0,0,0,0,-1.7774,-1.7885,-1.7649,-1.7624,-1.762,-1.7515,-1.7512,-1.751,-1.7497,-1.7499,-1.7502,-1.7504,-1.7364,-1.7356,-1.7349,-1.7259,0,0,-1.7325,-1.7322,0,0,0,0,0,0,0,0,-1.7781,-1.7765,-1.7629,-1.7625,-1.7621,-1.7525,-1.7546,-1.7426,-1.7497,-1.7544,-1.7502,-1.7505,-1.7413,-1.7401,-1.7371,-1.7252,-1.7246,-1.7325,-1.732,-1.7317,-1.7315,0,0,0,0,0,0,0,-1.7789,-1.7771,-1.7596,-1.7627,-1.7622,-1.7617,-1.7603,-1.7523,-1.7468,-1.754,-1.7539,-1.7523,-1.7411,-1.7379,-1.7368,-1.7244,-1.7325,-1.7318,-1.7313,-1.731,-1.7042,-1.7039,0,0,0,0,0,0,-1.7802,-1.7778,-1.76,-1.7592,-1.7708,-1.7611,-1.7595,-1.7554,-1.7469,-1.7458,-1.7521,-1.7523,-1.7391,-1.7377,-1.7363,-1.725,-1.7317,-1.731,-1.7305,-1.7044,-1.7041,-1.7038,0,0,0,0,0,0,-1.7807,-1.7787,-1.7605,-1.7684,-1.7661,-1.7605,-1.7558,-1.755,-1.7517,-1.7455,-1.7445,-1.7498,-1.7392,-1.7374,-1.7284,-1.7245,-1.7306,-1.7299,-1.7047,-1.7043,-1.704,-1.7025,0,0,0,0,0,0,-1.7814,-1.7789,-1.7755,-1.7684,-1.7657,-1.7531,-1.7556,-1.7546,-1.7505,-1.7505,-1.7431,-1.742,-1.7392,-1.7296,-1.7277,-1.7236,-1.7293,-1.705,-1.7045,-1.7041,-1.7029,-1.7021,-1.7015,0,0,0,0,0,-1.7823,-1.7756,-1.7753,-1.7732,-1.7614,-1.7529,-1.7513,-1.7483,-1.7502,-1.7466,-1.7426,-1.7423,-1.7253,-1.7287,-1.7265,-1.7221,-1.7053,-1.7047,-1.7041,-1.7032,-1.7023,-1.7015,0,0,0,0,0,0,-1.7824,-1.7746,-1.7743,-1.7651,-1.7596,-1.7527,-1.7482,-1.7474,-1.7413,-1.7416,-1.738,-1.7363,-1.7275,-1.7239,-1.7279,-1.7128,-1.7154,-1.7144,-1.7155,-1.7146,-1.7139,-1.7148,-1.7287,0,0,0,0,0,-1.7814,-1.7752,-1.7687,-1.7612,-1.7585,-1.7538,-1.75,-1.7481,-1.7423,-1.74,-1.7353,-1.7295,-1.7228,-1.7185,-1.7121,-1.7024,-1.7006,-1.6983,-1.6976,-1.697,-1.6961,-1.6905,-1.6893,-1.7019,-1.7019,-1.702,0,0,-1.7791,-1.7741,-1.7705,-1.7611,-1.7567,-1.7502,-1.7519,-1.745,-1.7401,-1.7389,-1.7302,-1.7265,-1.7198,-1.7104,-1.7061,-1.7072,-1.6922,-1.6963,-1.6959,-1.6953,-1.6898,-1.6886,-1.6875,-1.7016,-1.7016,-1.7017,0,0,-1.7717,-1.7674,-1.7606,-1.7561,-1.7494,-1.7463,-1.7446,-1.7377,-1.7352,-1.7264,-1.7253,-1.7193,-1.708,-1.7032,-1.6993,-1.6899,-1.6892,-1.6879,-1.6841,-1.6787,-1.6777,-1.6768,-1.6732,-1.672,-1.687,-1.687,-1.687,0,-1.7698,-1.7601,-1.7572,-1.7503,-1.7461,-1.7447,-1.7377,-1.7334,-1.7249,-1.7219,-1.7234,-1.709,-1.7044,-1.6937,-1.6914,-1.6884,-1.6862,-1.6887,-1.6781,-1.6772,-1.6763,-1.6728,-1.6715,-1.6869,-1.6869,-1.6869,-1.6869,0,-1.7579,-1.7512,-1.7465,-1.7383,-1.7336,-1.7267,-1.7225,-1.718,-1.7166,-1.7132,-1.7041,-1.6986,-1.6909,-1.6882,-1.6867,-1.6773,-1.6781,-1.6789,-1.6814,-1.675,-1.6716,-1.6703,-1.6867,-1.6867,-1.6868,-1.6868,0,0,-1.7502,-1.7404,-1.7387,-1.7349,-1.7273,-1.722,-1.7149,-1.7074,-1.7035,-1.6977,-1.6914,-1.6818,-1.6824,-1.6779,-1.6758,-1.6711,-1.6636,-1.6723,-1.6721,-1.6707,-1.6526,-1.652,-1.6505,-1.6633,-1.663,-1.6628,-1.6531,0,-1.7418,-1.7293,-1.7263,-1.7155,-1.7091,-1.7076,-1.7014,-1.6959,-1.6926,-1.6865,-1.6828,-1.6759,-1.6773,-1.6746,-1.6698,-1.6656,-1.6599,-1.6663,-1.6572,-1.6569,-1.6588,-1.6488,-1.6482,-1.6393,-1.6518,-1.6516,-1.6514,0,-1.7304,-1.7243,-1.7128,-1.7058,-1.703,-1.6975,-1.6903,-1.6846,-1.6783,-1.6761,-1.6711,-1.6694,-1.6617,-1.6647,-1.654,-1.6583,-1.6544,-1.6518,-1.6513,-1.6503,-1.6537,-1.6473,-1.6365,-1.6351,-1.6494,-1.6496,-1.6497,0,-1.7257,-1.7146,-1.7062,-1.703,-1.6947,-1.6908,-1.6871,-1.6811,-1.6767,-1.6703,-1.6674,-1.6602,-1.6562,-1.6506,-1.6469,-1.6495,-1.6363,-1.6391,-1.6342,-1.6342,-1.6314,-1.6316,-1.6196,-1.6292,-1.6292,-1.6292,-1.6292,0,-1.7166,-1.7096,-1.704,-1.6988,-1.6908,-1.6874,-1.6795,-1.6758,-1.6703,-1.6643,-1.6626,-1.6569,-1.6525,-1.6461,-1.6432,-1.6346,-1.6328,-1.6307,-1.63,-1.6308,-1.631,-1.6281,-1.6285,-1.6288,-1.6289,-1.629,-1.6291,0,-1.71,-1.706,-1.6968,-1.6896,-1.6876,-1.682,-1.6758,-1.6706,-1.6672,-1.6595,-1.6575,-1.652,-1.6444,-1.6403,-1.6307,-1.6288,-1.619,-1.6187,-1.6212,-1.6208,-1.6161,-1.6165,-1.6017,-1.5994,-1.6106,-1.6106,-1.6105,0,-1.7044,-1.699,-1.6912,-1.687,-1.6833,-1.6767,-1.6722,-1.6685,-1.6638,-1.6561,-1.6518,-1.6441,-1.6377,-1.6256,-1.6207,-1.6133,-1.6127,-1.608,-1.6116,-1.6124,-1.6124,-1.6127,-1.612,-1.6073,-1.6072,-1.6071,-1.6071,0,-1.6948,-1.693,-1.6867,-1.6795,-1.6742,-1.6684,-1.6626,-1.6592,-1.6546,-1.6494,-1.6416,-1.6367,-1.6269,-1.6192,-1.6114,-1.6074,-1.6063,-1.606,-1.6044,-1.6051,-1.6067,-1.6055,-1.6193,-1.6063,-1.6064,-1.6065,-1.6065,-1.6065,-1.6884,-1.6834,-1.6771,-1.67,-1.6652,-1.6598,-1.6545,-1.6504,-1.6439,-1.6357,-1.6338,-1.6256,-1.6191,-1.6085,-1.6043,-1.5977,-1.5985,-1.5963,-1.5957,-1.5952,-1.5949,-1.6079,-1.5963,-1.5963,-1.5963,-1.5963,-1.5963,0,-1.6786,-1.6744,-1.6679,-1.6598,-1.6542,-1.6538,-1.6473,-1.6425,-1.6353,-1.6294,-1.6232,-1.6141,-1.6065,-1.601,-1.5932,-1.5889,-1.5882,-1.587,-1.5872,-1.5862,-1.5947,-1.5967,-1.5877,-1.5877,-1.5877,-1.5877,-1.5877,-1.5877,-1.6728,-1.6643,-1.6617,-1.6506,-1.6465,-1.6384,-1.6347,-1.6296,-1.6248,-1.6148,-1.6085,-1.605,-1.5991,-1.5909,-1.5839,-1.5824,-1.5795,-1.5783,-1.5768,-1.5847,-1.5857,-1.5865,-1.5884,-1.5778,-1.5778,-1.5688,-1.5688,-1.5687]},{"header":{"parameterUnit":"m.s-1","parameterCategory":1,"la1":30.2991,"la2":30.254,"lo1":-89.0895,"lo2":-89.0444,"dy":0.0017,"dx":0.0017,"nx":28,"ny":28,"refTime":"2025-07-17T03:00:00:Z","depth":0,"parameterNumber":3,"parameterNumberName":"V-component_of_WINDS"},"data":[0,0,0,0,0,0,0,0,0,0,0,0,0,0,0,0,0,0,0,0,0,0,0,0,0,0,0,0,0,0,0,0,0,0,0,0,0,0,0,0,0,0,0,0,0,0,0,0,0,0,0,0,0,0,0,0,0,0,5.3184,5.3185,0,5.3293,5.3294,5.3295,5.3242,5.3239,5.3236,5.3234,5.3342,5.3347,5.3352,0,0,0,0,0,0,0,0,0,0,0,0,0,5.2928,5.2933,5.3184,5.3186,5.3187,5.3292,5.3294,5.3295,5.3242,5.3239,5.3235,5.3232,5.334,5.3346,5.3353,0,0,0,0,0,0,0,0,0,0,0,0,0,5.3038,5.2934,5.3184,5.3173,5.3173,5.3292,5.3294,5.3296,5.3243,5.3239,5.3235,5.3231,5.3338,5.3346,5.3354,5.3488,0,0,5.3379,5.3382,0,0,0,0,0,0,0,0,5.3032,5.3047,5.3173,5.3174,5.3175,5.3249,5.3243,5.336,5.3244,5.3216,5.3233,5.3229,5.3314,5.3324,5.3353,5.3493,5.3498,5.338,5.3385,5.3388,5.339,0,0,0,0,0,0,0,5.3024,5.3042,5.3227,5.3175,5.3176,5.3162,5.3173,5.3265,5.3287,5.3219,5.3215,5.3229,5.3314,5.3346,5.3356,5.35,5.3379,5.3387,5.3392,5.3395,5.3754,5.3759,0,0,0,0,0,0,5.3017,5.3036,5.3223,5.323,5.3091,5.317,5.3182,5.323,5.3286,5.3291,5.3232,5.3226,5.3334,5.3346,5.3359,5.352,5.3388,5.3396,5.34,5.375,5.3755,5.376,0,0,0,0,0,0,5.3012,5.3035,5.3219,5.3132,5.3155,5.3179,5.3232,5.3234,5.3266,5.3297,5.33,5.3261,5.3331,5.3348,5.3457,5.3523,5.3399,5.3407,5.3744,5.3752,5.3758,5.3843,0,0,0,0,0,0,5.3005,5.3033,5.3085,5.3134,5.316,5.3316,5.3237,5.3239,5.3281,5.3273,5.3325,5.3329,5.3329,5.3445,5.3465,5.3532,5.3413,5.3739,5.3748,5.3756,5.3834,5.3852,5.3867,0,0,0,0,0,5.2996,5.3105,5.3088,5.3111,5.3226,5.332,5.3335,5.3333,5.3286,5.3338,5.3358,5.3327,5.3513,5.3456,5.3479,5.3549,5.3734,5.3745,5.3755,5.3827,5.3849,5.3867,0,0,0,0,0,0,5.3062,5.3111,5.3093,5.3221,5.3267,5.3311,5.3377,5.3356,5.3415,5.3406,5.34,5.3412,5.3526,5.3548,5.3485,5.3682,5.3616,5.3631,5.3663,5.3684,5.37,5.3692,5.342,0,0,0,0,0,5.3092,5.3165,5.3203,5.3312,5.3336,5.3353,5.3394,5.3389,5.3436,5.3454,5.3482,5.3528,5.3596,5.3641,5.3706,5.3837,5.3847,5.3897,5.3913,5.3926,5.394,5.401,5.4032,5.3795,5.3794,5.3794,0,0,5.3153,5.3189,5.3236,5.3327,5.3361,5.3437,5.3369,5.3452,5.3507,5.3467,5.3571,5.3593,5.3644,5.3765,5.3819,5.3787,5.4008,5.394,5.395,5.3956,5.4023,5.4046,5.4066,5.3802,5.38,5.3799,0,0,5.3304,5.3339,5.3433,5.347,5.3524,5.3534,5.3557,5.3604,5.3617,5.3722,5.3693,5.3758,5.3876,5.3914,5.3948,5.4112,5.4086,5.4133,5.4219,5.4287,5.4306,5.4323,5.4381,5.4402,5.4146,5.4147,5.4147,0,5.3373,5.3487,5.3484,5.3569,5.3609,5.3577,5.3672,5.3707,5.3779,5.3807,5.377,5.3917,5.3949,5.4078,5.4118,5.4147,5.4172,5.4127,5.4304,5.432,5.4336,5.4391,5.4413,5.4152,5.4151,5.4151,5.415,0,5.3569,5.3648,5.3718,5.3789,5.3837,5.3927,5.3936,5.3985,5.3976,5.3989,5.4096,5.4133,5.4204,5.4235,5.4226,5.4362,5.434,5.4304,5.4237,5.4364,5.4416,5.4437,5.416,5.4158,5.4156,5.4155,0,0,5.3765,5.3833,5.3859,5.3891,5.3948,5.4008,5.4095,5.4166,5.4208,5.4258,5.4331,5.4431,5.4398,5.4437,5.4432,5.4492,5.4619,5.4448,5.4449,5.4478,5.477,5.4797,5.4822,5.4602,5.4606,5.4609,5.4766,0,5.3919,5.4073,5.4073,5.4215,5.4287,5.4257,5.4333,5.4375,5.439,5.4453,5.4469,5.454,5.4491,5.4514,5.4573,5.4591,5.4678,5.458,5.4669,5.4672,5.4657,5.4849,5.4878,5.5024,5.4786,5.479,5.4792,0,5.412,5.4178,5.4328,5.4374,5.4404,5.4472,5.4536,5.4597,5.4644,5.4651,5.4694,5.468,5.4767,5.4699,5.4819,5.4752,5.4788,5.4803,5.4809,5.4817,5.474,5.4862,5.5071,5.5092,5.4824,5.4822,5.4819,0,5.4247,5.4362,5.4467,5.4495,5.4551,5.46,5.4625,5.4668,5.4711,5.4766,5.4793,5.4858,5.4894,5.4944,5.4947,5.4897,5.5068,5.5,5.5075,5.5075,5.5112,5.511,5.5329,5.5136,5.5136,5.5136,5.5135,0,5.4419,5.4512,5.4524,5.4589,5.4691,5.4689,5.479,5.4811,5.4849,5.4916,5.4893,5.4956,5.4957,5.502,5.5023,5.5122,5.5138,5.5145,5.5144,5.5147,5.5146,5.517,5.516,5.5141,5.514,5.5139,5.5138,0,5.4579,5.4591,5.4703,5.4747,5.476,5.4833,5.4871,5.4931,5.4944,5.5028,5.5048,5.5068,5.5141,5.5149,5.5235,5.5237,5.5356,5.5345,5.534,5.5338,5.5413,5.5406,5.5656,5.5688,5.5474,5.5476,5.5478,0,5.4688,5.4758,5.481,5.4854,5.4882,5.4953,5.4996,5.4996,5.5042,5.51,5.5154,5.5225,5.5283,5.5402,5.5423,5.5488,5.5478,5.5561,5.5488,5.5488,5.5479,5.5475,5.5481,5.5575,5.5578,5.558,5.5581,0,5.488,5.4882,5.4946,5.5012,5.5064,5.5116,5.5164,5.5201,5.5207,5.5259,5.5335,5.5379,5.5467,5.5538,5.5602,5.5627,5.5606,5.5604,5.5625,5.5628,5.5623,5.5626,5.5379,5.5598,5.5597,5.5595,5.5595,5.5594,5.5017,5.5078,5.5125,5.5196,5.5232,5.5278,5.5337,5.5357,5.542,5.5492,5.5488,5.5572,5.5616,5.57,5.5729,5.5794,5.5766,5.5796,5.5804,5.5811,5.5819,5.5613,5.5805,5.5805,5.5804,5.5804,5.5804,0,5.5208,5.5236,5.5302,5.537,5.5426,5.5402,5.5453,5.5502,5.5575,5.5619,5.5676,5.5763,5.5831,5.5858,5.5925,5.5971,5.5963,5.5989,5.5985,5.5991,5.584,5.5815,5.5994,5.5994,5.5994,5.5994,5.5994,5.5994,5.5314,5.5416,5.5423,5.5543,5.557,5.5652,5.5684,5.5725,5.576,5.5858,5.5915,5.5932,5.5969,5.6038,5.6099,5.6105,5.6131,5.6161,5.6163,5.6021,5.6002,5.5983,5.596,5.6167,5.6167,5.6308,5.631,5.6311]}]]